CAPE
1166 1526 1834 1961 2024 2109 2262 2461 2535 2589 2453 2306 2148 2097 2050 2031 1827 1827 1857 1970 1991 2033 2031 1476 1399 1583 1353 1395 1507 1678 1180 898 769 824 702 505 499 522 520 394 410 428 434
1081 1578 1676 1889 1986 2174 2311 2490 2673 2748 2762 2396 2398 2155 1776 1486 1562 1934 1876 1648 1364 1365 1230 1164 946 937 916 1021 1297 1405 1170 726 696 708 587 243 311 305 473 429 294 349 377
1210 1403 1539 1748 1862 2072 2440 2527 2699 2732 3089 2786 1921 1137 550 904 446 532 370 718 921 763 766 744 754 812 962 753 766 872 859 767 513 603 585 205 187 188 239 409 347 275 344
1400 1364 1333 1590 1657 1965 2344 3127 3341 2967 2065 1142 597 578 24 79 174 161 134 319 282 457 462 566 546 770 730 768 657 728 839 691 660 495 554 505 230 189 228 242 314 365 306
1288 1302 990 1194 1469 2298 2620 2397 1792 1225 769 692 283 44 47 0 32 11 11 91 100 217 293 442 434 536 529 446 462 525 784 645 523 460 402 374 401 380 350 212 219 349 296
1128 1361 1148 1402 1992 1886 1592 817 819 597 476 207 172 133 84 13 0 7 9 7 14 42 133 100 106 214 281 328 397 445 648 747 691 671 606 467 410 384 385 375 226 188 174
984 1167 1538 1836 1580 1606 777 392 571 488 432 5 0 2 4 8 1 25 0 0 0 3 2 0 0 0 65 142 230 312 485 567 660 639 684 729 548 443 502 440 431 325 248
734 1009 1657 1522 1525 1175 465 326 547 462 57 41 131 104 58 0 0 1 0 0 0 0 0 1 1 3 28 67 155 243 310 372 409 536 508 644 843 751 662 254 308 445 336
630 999 1360 1321 1190 480 399 430 494 339 52 45 224 172 113 67 2 6 32 4 0 0 0 6 10 30 70 180 290 207 172 231 347 383 396 401 459 618 611 460 383 540 329
595 926 1039 1058 594 323 331 368 425 325 118 118 118 0 0 20 2 0 0 17 31 29 30 26 30 50 87 84 133 86 106 335 347 348 264 264 266 327 400 533 413 322 576
389 720 997 1095 355 284 212 236 318 258 128 132 46 8 0 0 0 0 4 25 35 80 73 158 197 190 219 217 190 138 46 53 98 116 76 180 269 227 205 340 456 493 436
189 162 868 980 296 281 40 51 106 107 34 28 5 0 0 0 0 0 0 2 0 65 96 169 403 376 332 348 392 293 206 153 75 86 76 102 176 165 350 263 245 293 298
457 99 443 585 328 296 97 19 64 0 0 0 0 0 0 0 0 0 0 0 29 73 169 340 304 205 395 364 361 399 190 78 53 14 3 0 4 15 153 381 258 132 253
667 322 319 378 386 286 276 238 63 0 0 0 0 0 0 0 0 0 0 34 131 211 379 424 397 474 524 484 477 400 177 45 9 0 3 0 5 14 180 204 366 295 151
591 535 445 389 516 446 403 273 99 22 9 0 0 0 0 47 0 64 175 201 168 135 277 274 382 399 410 478 516 157 167 59 8 4 0 0 11 4 1 8 214 242 292
533 616 570 503 567 470 335 55 69 3 37 92 11 0 73 234 320 175 241 211 117 92 210 260 287 447 512 161 0 0 103 38 51 21 0 0 4 3 3 0 0 12 208
474 476 547 578 563 364 8 6 8 0 84 176 46 58 274 301 286 76 142 148 243 274 189 215 309 455 500 238 0 0 74 53 3 34 25 0 0 2 2 2 2 0 1
342 491 546 598 478 44 0 1 0 42 163 179 154 164 276 325 330 144 106 139 279 236 181 224 386 372 325 179 15 0 99 146 96 40 75 20 2 0 0 2 3 4 0
419 551 582 508 149 12 0 15 68 66 80 107 172 156 267 372 416 278 264 320 265 123 108 262 423 388 354 116 113 0 156 203 101 167 52 30 21 0 0 1 2 1 5
522 604 436 186 103 64 29 142 169 202 123 101 135 82 235 447 355 331 291 279 267 168 247 276 403 475 274 269 117 48 171 144 179 144 67 22 15 0 0 0 2 2 2
427 481 304 106 92 281 294 170 253 262 231 151 87 104 465 701 710 350 348 299 410 371 376 487 503 343 154 400 92 19 137 187 202 56 18 30 58 24 0 0 1 1 2
307 383 270 196 313 648 777 712 651 605 424 287 352 684 726 689 254 623 447 314 431 140 412 560 464 202 192 232 45 0 0 5 13 52 123 119 72 48 16 3 1 0 1
309 291 373 642 874 920 1100 993 1050 1002 856 1205 789 350 119 371 793 662 535 355 280 212 143 240 195 226 189 149 21 0 8 0 0 16 121 31 40 37 60 17 18 0 3
475 484 550 587 594 615 804 1004 1132 1383 885 593 290 304 598 724 777 441 364 345 192 290 312 239 196 143 136 151 1 0 4 8 0 0 79 56 41 27 54 45 33 48 2
256 256 322 455 557 773 857 767 685 457 440 431 452 600 503 477 473 499 184 205 0 26 29 181 120 101 48 0 0 0 0 0 0 0 71 10 0 0 0 11 65 45 39
303 376 407 459 473 376 383 455 514 546 579 520 396 328 255 213 131 175 29 0 0 0 0 0 0 0 0 0 0 0 0 0 0 16 0 0 0 2 3 2 2 5 12
CIN
-12 -10 -16 -21 -19 -13 -7 -3 -1 -1 0 0 -1 -1 -1 -1 -1 -1 0 0 0 0 -1 -10 -2 -2 -2 0 -1 0 -1 -10 -2 0 -5 -5 -7 -5 -8 -20 -20 -14 -14
-27 -26 -27 -27 -20 -16 -13 -8 -1 -1 0 -1 0 -1 -2 -2 -1 -1 0 0 0 0 -1 0 -1 -1 -1 -2 0 0 0 -1 -3 0 -2 -1 -2 -2 -7 -10 -21 -22 -16
-23 -21 -21 -21 -18 -19 -18 -13 -7 -3 0 0 -1 -9 -39 -20 -27 -2 -9 -2 -1 -2 -1 -1 -1 -1 0 -1 -1 -2 -1 -1 -2 -2 -1 -1 -1 -3 -4 -5 -12 -24 -21
-27 -17 -12 -16 -17 -27 -21 -1 0 0 -7 -28 -20 -23 -16 -96 -87 -92 -72 -20 -19 -4 -2 -1 -1 -1 -1 0 0 0 0 0 -1 -1 0 -2 -3 -3 -1 -3 -2 -7 -19
-27 -13 -11 -21 -22 -18 -7 -15 -34 -48 -64 -46 -123 -78 -195 0 -181 -239 -213 -106 -81 -24 -5 -1 0 -1 -1 -3 0 -3 0 0 -1 -1 -2 -1 -1 -2 -1 -4 -1 -4 -4
-32 -22 -18 -34 -27 -29 -40 -72 -89 -94 -94 -154 -170 -171 -173 -88 0 -42 -228 -1 0 -133 -59 -42 -24 -5 0 -1 0 0 0 0 0 0 -1 -1 0 0 0 0 -2 -2 -4
-57 -39 -26 -45 -62 -45 -70 -110 -109 -113 -101 -120 0 -68 -128 -244 -34 -178 0 0 0 -1 0 0 0 0 -43 -20 -3 -2 0 0 0 -1 0 -1 -2 -2 -1 -2 0 -1 -2
-90 -64 -38 -60 -64 -55 -106 -130 -102 -109 -245 -286 -175 -197 -209 0 0 -1 -10 0 0 0 0 0 -1 0 -38 -29 -10 -6 -1 -1 -2 -1 -1 0 0 0 -1 -16 -4 0 -1
-98 -72 -52 -73 -69 -102 -114 -109 -101 -123 -209 -229 -111 -138 -151 -151 -26 -162 -120 0 0 0 0 -30 -20 -69 -47 -5 0 -4 -4 -1 -2 -1 -1 -2 -5 -2 -2 -3 -3 0 0
-87 -59 -59 -93 -114 -128 -125 -116 -112 -122 -170 -154 -163 0 0 -196 -69 0 0 -133 -126 -120 -116 -99 -68 -37 -17 -17 -8 -18 -11 -1 -1 -1 -2 -1 -1 -1 -4 -2 -4 -5 0
-104 -73 -64 -86 -138 -133 -139 -127 -120 -140 -167 -144 -216 -285 0 0 0 0 -130 -83 -84 -65 -70 -19 -10 -5 -2 -3 -5 -9 -15 -1 -12 -11 -2 -1 -1 -1 -1 -3 -1 0 0
-83 -94 -75 -92 -136 -142 -199 -175 -160 -172 -205 -196 -180 0 0 0 0 0 0 -23 -4 -68 -44 -12 -2 0 -1 -2 -1 -1 -2 -2 -23 -21 -12 0 0 0 0 -1 -1 0 -1
-70 -103 -99 -115 -149 -140 -156 -155 -186 0 0 0 0 0 0 0 0 0 0 0 -12 -40 -7 -1 -1 -3 0 -1 -1 -1 -4 -9 -7 -17 -23 -6 -2 0 -1 0 -1 -2 -1
-77 -112 -114 -135 -144 -127 -137 -136 -187 0 0 0 0 0 0 0 0 0 0 -13 -15 -4 0 -1 0 -1 -1 -1 -1 -2 -4 -17 -19 0 0 0 0 -3 0 -1 0 0 -1
-107 -144 -126 -158 -140 -127 -135 -139 -167 -193 -120 0 0 0 0 -31 0 -30 -5 -1 -6 -10 0 0 0 -1 -1 -2 -3 -21 -4 -20 -26 -84 0 0 0 0 0 -2 0 0 0
-151 -155 -154 -133 -130 -121 -140 -155 -150 -136 -130 -102 -61 0 -40 -10 -5 -5 -1 0 -6 -1 -1 -1 -1 -2 -2 -53 0 0 -5 -26 -25 -30 0 0 0 0 0 0 0 -4 0
-138 -152 -137 -116 -119 -125 -123 -92 -125 0 -106 -73 -60 -53 -13 -3 -2 -5 -2 -3 -1 -2 -1 -1 -1 -1 -1 -43 0 0 -13 -32 -34 -14 -37 0 0 0 0 0 0 0 0
-127 -144 -93 -90 -132 -118 0 -52 0 -118 -87 -62 -54 -45 -14 -2 -2 -14 -9 -3 -1 -1 -8 -7 -3 -2 -1 -27 -80 0 -21 -14 -19 -23 -2 -43 -64 0 0 0 0 0 0
-137 -102 -71 -102 -84 -104 0 -107 -108 -94 -78 -54 -49 -55 -14 -3 -2 -1 -1 -2 -6 -19 -15 -2 -5 -2 -2 -26 -36 0 -3 -8 -16 -8 -17 -20 -20 0 0 0 0 0 0
-82 -82 -102 -87 -67 -73 -76 -93 -89 -76 -56 -55 -57 -74 -10 0 -9 -1 -8 -3 -6 -7 -1 -3 -1 -1 -2 -5 -38 -52 -23 -21 -11 -11 -18 -33 -31 0 0 0 0 0 0
-80 -85 -62 -60 -52 -47 -53 -62 -62 -54 -44 -33 -48 -49 -7 -5 -9 -14 -7 -12 -12 -14 -9 -2 -3 -5 -3 -10 -52 -74 -37 -16 -16 -16 -37 -28 -25 -59 0 -9 -1 0 0
-64 -60 -42 -38 -33 -46 -57 -56 -51 -54 -33 -18 -23 -9 -11 -4 -4 -10 -11 -16 -17 -32 -1 -1 -3 -3 -2 -23 -62 0 -5 -31 -72 -56 -27 -29 -64 -56 -44 -9 -16 0 0
-43 -33 -28 -23 -32 -49 -93 -78 -59 -23 -15 -17 -37 -34 -49 -17 -2 -9 -9 -9 -15 -19 -20 -1 -2 -2 -3 -5 -54 0 -72 0 0 -53 -51 -149 -130 -72 -48 -30 -4 0 0
-52 -53 -48 -47 -56 -78 -98 -92 -43 -33 -58 -47 -54 -49 -24 -15 -1 -11 -2 -2 -6 -4 -1 -2 -2 -3 -2 -3 -16 0 -28 -17 0 0 -69 -69 -120 -67 -58 -19 -3 0 -1
-94 -96 -92 -86 -79 -96 -87 -82 -85 -96 -59 -49 -43 -22 -18 -8 -2 -5 -48 -15 -44 -24 -44 -11 -19 -20 -26 -21 0 0 0 0 0 0 -35 -81 0 0 -18 -49 -14 -7 -1
-115 -103 -119 -97 -96 -97 -88 -89 -83 -65 -46 -29 -19 -8 -10 -7 -3 -2 -63 0 0 0 0 0 0 0 0 0 0 0 0 0 0 -8 0 0 0 0 0 0 0 -7 -42
Wind_Speed
18 19 19 18 17 15 14 13 12 12 10 9 8 8 8 11 11 13 12 11 13 12 12 14 12 14 16 20 24 22 20 22 22 25 27 29 30 30 29 22 22 24 25
15 15 17 17 17 16 16 15 14 13 11 10 11 12 14 14 16 15 15 15 16 16 16 16 17 18 20 20 21 21 22 22 21 22 26 32 31 30 29 29 26 23 23
14 14 16 17 16 15 15 15 14 13 13 14 14 13 13 12 13 15 16 18 18 18 17 17 18 19 19 22 22 21 20 23 22 19 24 31 34 34 30 27 30 30 26
13 13 14 14 15 14 14 14 15 16 16 16 16 17 16 16 19 16 18 18 18 21 21 21 20 20 22 22 22 24 22 22 25 25 21 29 38 35 34 28 28 29 30
12 11 12 11 12 13 13 14 15 16 17 18 19 17 17 18 18 19 19 20 20 21 22 22 22 22 22 21 21 23 24 24 25 27 29 29 32 36 41 39 32 26 27
12 10 10 9 10 10 11 13 14 16 18 19 20 20 17 18 18 19 19 20 20 21 21 22 23 24 25 24 24 24 25 27 27 29 31 32 32 33 36 39 42 43 36
11 11 10 8 8 8 9 11 13 15 17 18 21 19 17 17 17 19 20 20 19 20 21 22 22 23 24 25 24 24 24 26 32 34 35 34 35 34 35 38 43 41 40
10 10 9 7 6 5 7 9 11 14 17 19 20 18 17 17 17 18 19 19 20 20 21 21 22 22 24 24 25 22 22 23 30 37 37 37 36 35 36 40 40 42 42
10 10 8 6 5 3 5 7 10 13 17 19 19 18 17 17 19 19 18 17 18 19 19 21 22 23 25 26 27 25 26 27 32 37 40 41 40 40 40 40 40 42 45
10 9 8 6 4 1 3 5 9 13 17 19 19 19 18 17 18 19 18 18 17 19 20 21 21 22 24 26 28 28 27 28 33 38 41 43 44 43 42 40 40 43 43
10 10 8 7 5 2 2 4 8 13 17 19 20 19 16 17 18 19 19 18 17 17 21 22 23 21 22 23 27 28 29 32 35 39 42 45 45 46 44 41 40 41 38
10 9 9 8 6 3 2 5 9 13 17 20 20 18 16 17 19 19 19 18 17 18 22 22 22 20 21 23 25 28 31 36 41 43 45 48 46 46 44 43 43 41 40
8 9 10 9 7 4 2 6 9 13 17 20 20 17 16 17 19 19 19 19 19 19 22 23 21 23 21 23 22 27 32 35 38 42 45 47 48 48 43 42 43 42 41
8 9 10 9 8 5 4 6 10 13 16 19 19 17 15 17 18 19 19 20 21 22 22 22 19 20 21 22 20 24 29 33 36 41 46 45 43 43 42 43 43 43 43
9 11 11 10 8 5 4 6 9 13 15 18 18 16 16 17 17 18 19 21 21 23 22 22 22 20 21 22 20 24 27 31 35 41 46 42 38 36 36 39 42 42 44
10 11 10 10 8 6 4 7 10 13 14 16 17 17 16 17 17 18 19 21 21 21 21 23 22 22 23 19 19 23 27 30 33 39 43 38 36 34 35 38 42 48 46
9 9 11 10 7 5 4 7 10 11 13 15 16 16 16 17 18 20 20 20 22 23 23 22 22 22 24 16 16 20 22 28 30 35 40 38 37 35 37 40 44 46 50
9 8 9 7 6 4 4 7 9 10 12 14 15 16 17 18 18 19 19 20 23 24 23 22 22 23 26 17 14 17 17 20 25 28 37 40 38 38 40 41 44 46 48
1 5 6 5 4 3 4 6 8 10 12 14 15 16 16 18 19 20 20 22 23 23 22 20 21 24 26 20 15 13 13 16 27 27 26 36 39 40 42 43 44 44 48
4 3 4 3 2 3 5 7 10 11 13 14 16 16 17 18 20 21 22 22 20 20 20 21 21 25 25 26 18 11 12 16 24 30 27 30 38 42 42 44 41 42 44
4 3 3 2 2 5 8 11 12 12 12 13 16 16 17 17 18 20 20 19 18 19 20 22 24 25 26 27 26 19 13 18 27 29 22 36 39 39 39 41 37 36 35
4 1 1 4 7 11 13 14 14 13 12 14 16 17 18 18 20 18 18 18 17 17 21 22 21 26 24 19 24 26 21 24 26 26 17 22 36 29 33 35 35 31 24
5 5 7 10 14 16 17 18 17 15 14 15 16 16 19 19 18 20 20 18 17 20 22 25 25 28 26 27 21 27 24 24 26 25 15 9 31 23 28 32 32 27 18
9 10 13 17 21 21 20 20 18 16 14 14 16 18 19 19 19 19 18 17 21 22 24 23 27 29 29 28 30 34 27 22 27 25 21 23 19 28 26 27 28 26 24
13 16 19 22 23 23 21 19 16 14 15 17 18 17 18 18 19 19 20 19 23 20 21 23 26 28 29 31 27 21 24 21 21 18 19 24 17 28 23 22 22 21 18
16 19 21 23 23 22 21 19 17 16 17 18 18 18 20 19 16 17 18 23 17 17 17 20 25 23 27 32 26 21 24 23 22 20 24 25 28 29 25 21 20 20 18
Wind_Direction
107 110 113 112 103 90 80 77 74 73 80 64 49 36 17 4 357 347 344 342 343 339 335 329 321 320 318 317 313 310 304 301 296 295 291 288 284 283 282 285 285 282 279
109 111 123 122 110 90 88 81 78 74 68 50 30 19 8 360 352 351 351 348 344 341 335 332 328 326 323 320 316 312 307 301 298 292 291 284 284 283 279 276 277 279 280
119 117 124 128 119 94 85 76 67 58 48 36 30 24 18 15 8 2 356 351 346 342 338 334 330 327 324 321 318 314 307 303 297 288 289 287 281 282 278 275 272 272 275
121 120 121 116 115 92 76 66 58 43 35 28 21 11 8 5 357 2 355 351 348 342 339 336 334 330 326 323 320 316 310 305 298 294 286 285 279 279 278 278 276 272 271
138 126 121 107 96 88 76 62 50 41 32 23 15 15 10 5 4 2 359 357 355 349 346 343 339 335 331 329 326 320 312 306 300 295 291 289 283 277 270 271 273 276 273
152 140 128 108 100 84 70 54 44 36 26 21 13 10 14 10 6 4 5 1 359 356 353 350 344 337 332 329 327 323 317 308 302 296 291 285 283 278 272 269 267 265 269
167 158 148 134 115 89 64 46 38 28 23 20 11 13 12 9 8 5 5 4 3 360 357 353 352 345 339 333 330 325 320 312 302 296 291 287 282 281 276 271 267 267 266
183 174 164 151 133 92 61 41 35 26 17 15 12 12 10 6 5 6 6 7 4 0 359 358 355 351 345 341 335 334 330 323 309 296 292 288 284 280 277 271 269 267 264
193 184 180 174 149 107 50 40 28 20 12 10 11 10 6 4 1 1 4 6 4 2 2 358 354 351 347 341 335 335 330 324 311 300 292 287 284 281 276 273 269 266 265
198 194 193 190 172 128 30 30 21 12 6 6 7 4 3 3 1 360 0 1 3 360 358 357 353 349 345 342 340 341 339 332 318 302 295 289 283 281 277 274 270 263 265
196 199 201 194 188 174 23 14 6 3 2 4 2 1 4 1 359 356 356 359 359 359 354 354 350 348 346 344 341 342 342 336 322 312 300 293 286 279 276 273 270 266 267
191 199 201 195 195 205 316 345 352 354 357 358 358 359 3 360 355 354 354 354 355 351 348 348 348 348 344 339 339 339 338 332 320 315 305 294 289 281 276 272 269 267 266
188 193 197 203 213 217 284 329 343 348 352 355 356 359 360 357 354 353 353 353 351 348 343 343 343 343 344 340 340 337 336 334 329 327 313 305 288 278 276 272 268 266 265
208 205 203 207 212 230 280 321 337 346 351 352 354 357 357 355 353 353 352 350 347 345 345 345 345 344 343 345 346 344 340 340 336 331 328 313 299 278 275 271 269 266 263
229 216 210 209 215 238 282 320 335 343 347 348 350 353 354 352 352 351 350 347 345 343 345 346 344 342 340 341 348 345 343 344 340 336 336 324 307 294 285 279 272 267 262
246 228 220 212 219 235 273 316 331 338 343 346 347 349 349 348 348 347 347 347 347 347 345 343 344 341 338 343 345 346 342 344 346 337 332 328 318 305 291 286 279 265 261
262 232 215 206 214 229 278 313 329 337 341 344 346 349 349 348 348 349 349 349 349 346 345 345 344 340 337 346 344 344 346 347 353 345 339 324 316 318 301 291 282 272 259
268 232 198 199 210 234 288 316 328 334 338 341 343 345 346 345 347 348 348 348 347 345 345 344 344 340 336 345 345 344 346 350 354 356 344 331 322 315 311 298 285 277 264
337 172 176 192 200 259 293 316 323 326 333 335 338 341 342 343 343 343 344 345 344 345 346 345 345 340 335 344 346 343 344 348 347 351 355 342 323 316 310 304 292 280 263
53 123 158 177 238 285 304 309 314 317 322 329 335 338 341 341 342 342 342 343 345 350 355 349 346 339 341 339 349 353 347 346 349 348 354 352 319 322 318 313 297 282 267
37 98 137 209 279 313 312 305 307 308 314 327 333 335 337 335 339 341 343 343 345 348 348 347 342 337 333 338 344 356 353 349 345 349 358 344 327 321 316 316 310 299 272
4 24 322 308 315 320 318 309 305 303 312 322 328 333 336 333 333 338 339 340 342 344 341 341 347 335 335 352 351 350 355 348 347 354 5 8 317 306 312 322 324 321 304
341 334 319 318 322 324 323 318 314 312 309 316 322 324 331 331 331 333 335 337 339 338 334 328 334 330 334 337 356 349 350 351 349 356 11 18 314 300 314 326 332 338 329
333 330 326 323 323 324 323 321 322 323 318 318 323 326 330 332 331 333 335 338 339 336 328 330 322 323 324 338 335 331 344 355 347 358 14 17 318 318 315 329 334 346 351
331 329 325 324 325 327 329 330 331 330 326 325 326 328 331 331 333 337 337 339 341 338 325 330 325 320 322 328 335 355 352 1 4 15 20 17 341 322 316 322 331 338 342
330 328 327 326 327 329 330 332 338 336 332 330 329 330 331 331 335 338 344 345 350 350 350 342 328 335 334 323 349 3 349 351 4 13 6 11 12 337 325 319 321 330 332